| time (UTC) | temp F | wind direction | speed MPH | gust MPH | rain 1hr in | rain 24hr in | rain mn in | humidity % | barometer mb |
| 20260502181203 | 56 | 342 | 3.0 | 8.0 | 0.00 | 0.00 | 0.00 | 52 | 1012.4 |
| 20260502180921 | 56 | 51 | 4.0 | 7.0 | 0.00 | 0.00 | 0.00 | 52 | 1028.9 |
| 20260502180703 | 56 | 328 | 3.0 | 8.0 | 0.00 | 0.00 | 0.00 | 54 | 1012.2 |
| 20260502180418 | 55 | 9 | 2.0 | 5.0 | 0.00 | 0.00 | 0.00 | 54 | 1028.8 |
| 20260502180202 | 55 | 357 | 1.0 | 12.0 | 0.00 | 0.00 | 0.00 | 53 | 1012.3 |
| 20260502170337 | 55 | 12 | 2.0 | 7.0 | 0.00 | 0.00 | 0.00 | 58 | 1029.2 |
| 20260502164324 | 55 | 288 | 0.0 | 2.0 | 0.00 | 0.00 | 0.00 | 57 | 1029.4 |
| 20260502164203 | 54 | 315 | 2.0 | 9.0 | 0.00 | 0.00 | 0.00 | 56 | 1012.7 |
| 20260502163820 | 53 | 14 | 4.0 | 7.0 | 0.00 | 0.00 | 0.00 | 57 | 1029.5 |
| 20260502163703 | 54 | 350 | 1.0 | 8.0 | 0.00 | 0.00 | 0.00 | 57 | 1012.7 |
| 20260502163316 | 54 | 2 | 2.0 | 7.0 | 0.00 | 0.00 | 0.00 | 61 | 1029.4 |
| 20260502163203 | 54 | 45 | 3.0 | 8.0 | 0.00 | 0.00 | 0.00 | 59 | 1012.9 |
| 20260502162814 | 54 | 17 | 3.0 | 5.0 | 0.00 | 0.00 | 0.00 | 59 | 1029.6 |
| 20260502162311 | 55 | 352 | 7.0 | 10.0 | 0.00 | 0.00 | 0.00 | 58 | 1029.8 |
| 20260502162203 | 55 | 351 | 1.0 | 7.0 | 0.00 | 0.00 | 0.00 | 63 | 1013.1 |
| 20260502161808 | 54 | 304 | 2.0 | 5.0 | 0.00 | 0.00 | 0.00 | 64 | 1029.8 |
| 20260502161703 | 54 | 314 | 1.0 | 9.0 | 0.00 | 0.00 | 0.00 | 60 | 1013.3 |
| 20260502161304 | 54 | 37 | 4.0 | 10.0 | 0.00 | 0.00 | 0.00 | 57 | 1029.8 |
| 20260502161203 | 54 | 59 | 3.0 | 12.0 | 0.00 | 0.00 | 0.00 | 58 | 1013.2 |
| 20260502160802 | 54 | 83 | 7.0 | 11.0 | 0.00 | 0.00 | 0.00 | 56 | 1029.8 |
| 20260502160300 | 54 | 17 | 3.0 | 5.0 | 0.00 | 0.00 | 0.00 | 56 | 1029.8 |
| 20260502160203 | 54 | 79 | 4.0 | 12.0 | 0.00 | 0.00 | 0.00 | 58 | 1013.4 |
| 20260502152229 | 52 | 303 | 0.0 | 8.0 | 0.00 | 0.00 | 0.00 | 62 | 1030.1 |
| 20260502151727 | 52 | 0 | 0.0 | 2.0 | 0.00 | 0.00 | 0.00 | 62 | 1030.1 |
| 20260502151703 | 52 | 55 | 1.0 | 12.0 | 0.00 | 0.00 | 0.00 | 64 | 1013.3 |
| 20260502151224 | 51 | 328 | 1.0 | 11.0 | 0.00 | 0.00 | 0.00 | 62 | 1030.0 |
| 20260502151203 | 52 | 13 | 6.0 | 16.0 | 0.00 | 0.00 | 0.00 | 63 | 1013.4 |
| 20260502150721 | 52 | 317 | 0.0 | 3.0 | 0.00 | 0.00 | 0.00 | 65 | 1030.1 |
| 20260502150703 | 51 | 336 | 0.0 | 13.0 | 0.00 | 0.00 | 0.00 | 65 | 1013.4 |
| 20260502150218 | 51 | 28 | 9.0 | 13.0 | 0.00 | 0.00 | 0.00 | 65 | 1029.8 |
| 20260502130704 | 47 | 345 | 2.0 | 12.0 | 0.00 | 0.00 | 0.00 | 80 | 1013.4 |
| 20260502130607 | 47 | 329 | 0.0 | 7.0 | 0.00 | 0.00 | 0.00 | 80 | 1030.1 |
| 20260502130204 | 47 | 334 | 2.0 | 12.0 | 0.00 | 0.00 | 0.00 | 79 | 1013.5 |
| 20260502130104 | 47 | 312 | 3.0 | 5.0 | 0.00 | 0.00 | 0.00 | 79 | 1030.2 |
| 20260502123549 | 48 | 8 | 4.0 | 10.0 | 0.00 | 0.00 | 0.00 | 85 | 1029.9 |
| 20260502123045 | 48 | 328 | 3.0 | 7.0 | 0.00 | 0.00 | 0.00 | 85 | 1030.0 |
| 20260502122703 | 47 | 333 | 2.0 | 8.0 | 0.00 | 0.00 | 0.00 | 88 | 1013.4 |
| 20260502122542 | 47 | 333 | 5.0 | 7.0 | 0.00 | 0.00 | 0.00 | 88 | 1030.1 |
| 20260502122204 | 46 | 339 | 2.0 | 8.0 | 0.00 | 0.00 | 0.00 | 88 | 1013.4 |
| 20260502122039 | 46 | 347 | 3.0 | 7.0 | 0.00 | 0.00 | 0.00 | 88 | 1030.1 |
| 20260502121704 | 46 | 323 | 4.0 | 8.0 | 0.00 | 0.00 | 0.00 | 88 | 1013.2 |
| 20260502121537 | 46 | 323 | 5.0 | 7.0 | 0.00 | 0.00 | 0.00 | 88 | 1029.8 |
| 20260502121204 | 46 | 321 | 3.0 | 13.0 | 0.00 | 0.00 | 0.00 | 87 | 1013.3 |
| 20260502121034 | 46 | 321 | 3.0 | 11.0 | 0.00 | 0.00 | 0.00 | 87 | 1030.0 |
| 20260502120703 | 46 | 337 | 2.0 | 9.0 | 0.00 | 0.00 | 0.00 | 87 | 1013.2 |
| 20260502120530 | 46 | 334 | 2.0 | 3.0 | 0.00 | 0.00 | 0.00 | 87 | 1029.8 |
| 20260502120203 | 46 | 335 | 2.0 | 12.0 | 0.00 | 0.00 | 0.00 | 87 | 1013.3 |
| 20260502115703 | 46 | 336 | 2.0 | 9.0 | 0.00 | 0.00 | 0.00 | 88 | 1013.1 |
| 20260502115525 | 46 | 328 | 0.0 | 5.0 | 0.00 | 0.00 | 0.00 | 88 | 1029.7 |
| 20260502115204 | 46 | 12 | 3.0 | 9.0 | 0.00 | 0.00 | 0.00 | 88 | 1013.1 |
| 20260502115021 | 46 | 326 | 2.0 | 7.0 | 0.00 | 0.00 | 0.00 | 88 | 1029.7 |
| 20260502114703 | 46 | 314 | 2.0 | 8.0 | 0.00 | 0.00 | 0.00 | 88 | 1013.1 |
| 20260502114518 | 46 | 312 | 4.0 | 8.0 | 0.00 | 0.00 | 0.00 | 88 | 1029.6 |
| 20260502114204 | 46 | 304 | 3.0 | 7.0 | 0.00 | 0.00 | 0.00 | 88 | 1013.1 |
| 20260502114014 | 46 | 307 | 4.0 | 5.0 | 0.00 | 0.00 | 0.00 | 88 | 1030.0 |
| 20260502113704 | 46 | 307 | 1.0 | 14.0 | 0.00 | 0.00 | 0.00 | 89 | 1013.1 |
| 20260502113512 | 46 | 301 | 2.0 | 5.0 | 0.00 | 0.00 | 0.00 | 88 | 1029.7 |
| 20260502113204 | 46 | 327 | 1.0 | 14.0 | 0.00 | 0.00 | 0.00 | 88 | 1012.9 |
| 20260502113011 | 46 | 333 | 2.0 | 10.0 | 0.00 | 0.00 | 0.00 | 88 | 1029.5 |
| 20260502112703 | 46 | 297 | 2.0 | 12.0 | 0.00 | 0.00 | 0.00 | 88 | 1013.1 |
| 20260502112508 | 46 | 289 | 1.0 | 5.0 | 0.00 | 0.00 | 0.00 | 88 | 1029.5 |
| 20260502112204 | 46 | 332 | 0.0 | 9.0 | 0.00 | 0.00 | 0.00 | 89 | 1012.9 |
| 20260502112005 | 46 | 308 | 0.0 | 7.0 | 0.00 | 0.00 | 0.00 | 89 | 1029.4 |
| 20260502111704 | 46 | 313 | 4.0 | 13.0 | 0.00 | 0.00 | 0.00 | 89 | 1012.8 |
| 20260502111502 | 46 | 310 | 3.0 | 13.0 | 0.00 | 0.00 | 0.00 | 89 | 1029.5 |
| 20260502111203 | 46 | 312 | 1.0 | 7.0 | 0.00 | 0.00 | 0.00 | 90 | 1012.7 |
| 20260502111000 | 46 | 33 | 3.0 | 5.0 | 0.00 | 0.00 | 0.00 | 89 | 1029.3 |
| 20260502110703 | 46 | 318 | 1.0 | 9.0 | 0.00 | 0.00 | 0.00 | 90 | 1012.7 |
| 20260502110457 | 46 | 304 | 0.0 | 0.0 | 0.00 | 0.00 | 0.00 | 90 | 1029.2 |
| 20260502110204 | 46 | 293 | 2.0 | 9.0 | 0.00 | 0.00 | 0.00 | 90 | 1012.5 |
| 20260502105954 | 46 | 331 | 0.0 | 0.0 | 0.00 | 0.00 | 0.00 | 90 | 1029.4 |
| 20260502105704 | 46 | 303 | 0.0 | 9.0 | 0.00 | 0.01 | 0.00 | 91 | 1012.5 |
| 20260502105452 | 46 | 287 | 0.0 | 3.0 | 0.00 | 0.00 | 0.00 | 91 | 1029.2 |
| 20260502105203 | 47 | 313 | 0.0 | 12.0 | 0.00 | 0.01 | 0.00 | 92 | 1012.5 |
| 20260502104944 | 47 | 336 | 0.0 | 0.0 | 0.00 | 0.00 | 0.00 | 92 | 1029.2 |
| 20260502104703 | 47 | 326 | 5.0 | 12.0 | 0.00 | 0.01 | 0.00 | 93 | 1012.5 |
| 20260502104441 | 46 | 330 | 0.0 | 7.0 | 0.00 | 0.00 | 0.00 | 93 | 1029.0 |
| 20260502104204 | 46 | 309 | 0.0 | 3.0 | 0.00 | 0.01 | 0.00 | 94 | 1012.4 |
| 20260502103939 | 46 | 290 | 0.0 | 3.0 | 0.00 | 0.00 | 0.00 | 94 | 1029.0 |
| 20260502103704 | 46 | 309 | 0.0 | 1.0 | 0.00 | 0.01 | 0.00 | 95 | 1012.2 |
| 20260502103436 | 46 | 290 | 0.0 | 0.0 | 0.00 | 0.00 | 0.00 | 95 | 1029.1 |
| 20260502103204 | 46 | 288 | 0.0 | 0.0 | 0.00 | 0.01 | 0.00 | 96 | 1012.2 |
| 20260502102933 | 46 | 330 | 0.0 | 0.0 | 0.00 | 0.00 | 0.00 | 96 | 1029.0 |
| 20260502102430 | 46 | 292 | 0.0 | 0.0 | 0.00 | 0.00 | 0.00 | 96 | 1028.7 |
| 20260502102204 | 46 | 292 | 0.0 | 0.0 | 0.00 | 0.01 | 0.00 | 96 | 1012.0 |
| 20260502101927 | 46 | 291 | 0.0 | 0.0 | 0.00 | 0.00 | 0.00 | 96 | 1028.8 |
| 20260502101425 | 46 | 290 | 0.0 | 0.0 | 0.00 | 0.00 | 0.00 | 96 | 1028.8 |
| 20260502101204 | 46 | 280 | 0.0 | 0.0 | 0.00 | 0.01 | 0.00 | 96 | 1012.1 |
| 20260502100917 | 46 | 262 | 0.0 | 0.0 | 0.00 | 0.00 | 0.00 | 96 | 1028.8 |
| 20260502100416 | 46 | 262 | 0.0 | 0.0 | 0.00 | 0.00 | 0.00 | 97 | 1028.8 |
| 20260502100203 | 46 | 247 | 0.0 | 0.0 | 0.00 | 0.01 | 0.00 | 98 | 1012.0 |
| 20260502091349 | 46 | 323 | 0.0 | 0.0 | 0.00 | 0.00 | 0.00 | 98 | 1028.6 |
| 20260502091203 | 46 | 323 | 0.0 | 0.0 | 0.00 | 0.01 | 0.00 | 97 | 1011.8 |
| 20260502090847 | 46 | 324 | 0.0 | 0.0 | 0.00 | 0.00 | 0.00 | 97 | 1028.6 |
| 20260502090702 | 47 | 324 | 0.0 | 0.0 | 0.00 | 0.01 | 0.00 | 97 | 1012.1 |
| 20260502090343 | 47 | 323 | 0.0 | 0.0 | 0.00 | 0.00 | 0.00 | 97 | 1028.5 |
| 20260502090202 | 47 | 323 | 0.0 | 0.0 | 0.00 | 0.01 | 0.00 | 97 | 1011.9 |
| 20260502071238 | 50 | 303 | 0.0 | 0.0 | 0.00 | 0.00 | 0.00 | 87 | 1028.5 |
| 20260502071203 | 50 | 303 | 0.0 | 0.0 | 0.00 | 0.01 | 0.00 | 87 | 1011.8 |
| 20260502070737 | 50 | 303 | 0.0 | 0.0 | 0.00 | 0.00 | 0.00 | 87 | 1028.6 |
| 20260502070703 | 50 | 303 | 0.0 | 0.0 | 0.00 | 0.01 | 0.00 | 87 | 1011.9 |
| 20260502070234 | 50 | 303 | 0.0 | 0.0 | 0.00 | 0.00 | 0.00 | 87 | 1028.6 |
| 20260502070203 | 50 | 303 | 0.0 | 0.0 | 0.00 | 0.01 | 0.00 | 87 | 1011.9 |
| 20260502065733 | 50 | 313 | 0.0 | 0.0 | 0.00 | 0.00 | 0.00 | 87 | 1028.8 |
| 20260502065704 | 49 | 313 | 0.0 | 0.0 | 0.00 | 0.01 | 0.00 | 87 | 1012.0 |
| 20260502065230 | 50 | 313 | 0.0 | 0.0 | 0.00 | 0.00 | 0.00 | 87 | 1028.4 |
| 20260502065203 | 49 | 313 | 0.0 | 0.0 | 0.00 | 0.01 | 0.00 | 86 | 1012.1 |
| 20260502064728 | 50 | 313 | 0.0 | 0.0 | 0.00 | 0.00 | 0.00 | 86 | 1028.7 |
| 20260502064703 | 50 | 313 | 0.0 | 0.0 | 0.00 | 0.01 | 0.00 | 86 | 1012.0 |
| 20260502064226 | 50 | 313 | 0.0 | 0.0 | 0.00 | 0.00 | 0.00 | 85 | 1028.5 |
| 20260502064203 | 50 | 313 | 0.0 | 0.0 | 0.00 | 0.01 | 0.00 | 85 | 1011.7 |
| 20260502063723 | 50 | 291 | 0.0 | 0.0 | 0.00 | 0.00 | 0.00 | 86 | 1028.4 |
| 20260502063703 | 50 | 291 | 0.0 | 0.0 | 0.00 | 0.01 | 0.00 | 86 | 1011.7 |
| 20260502063221 | 50 | 302 | 0.0 | 0.0 | 0.00 | 0.00 | 0.00 | 86 | 1028.5 |
| 20260502063203 | 50 | 312 | 0.0 | 0.0 | 0.00 | 0.01 | 0.00 | 86 | 1011.7 |
| 20260502062717 | 50 | 321 | 0.0 | 0.0 | 0.00 | 0.00 | 0.00 | 86 | 1028.3 |
| 20260502062703 | 50 | 330 | 0.0 | 0.0 | 0.00 | 0.01 | 0.00 | 86 | 1011.7 |
| 20260502062216 | 50 | 332 | 0.0 | 0.0 | 0.00 | 0.00 | 0.00 | 86 | 1028.4 |
| 20260502061714 | 50 | 276 | 0.0 | 0.0 | 0.00 | 0.00 | 0.00 | 86 | 1028.6 |
| 20260502061703 | 50 | 284 | 0.0 | 1.0 | 0.00 | 0.01 | 0.00 | 86 | 1012.0 |
| 20260502061211 | 50 | 319 | 0.0 | 0.0 | 0.00 | 0.00 | 0.00 | 86 | 1028.6 |
| 20260502061204 | 50 | 318 | 0.0 | 7.0 | 0.00 | 0.01 | 0.00 | 86 | 1012.0 |
| 20260502060706 | 50 | 297 | 4.0 | 7.0 | 0.00 | 0.00 | 0.00 | 86 | 1029.0 |
| 20260502060704 | 50 | 300 | 1.0 | 7.0 | 0.00 | 0.01 | 0.00 | 86 | 1012.2 |
| 20260502060203 | 50 | 308 | 3.0 | 12.0 | 0.00 | 0.01 | 0.00 | 87 | 1011.9 |
| 20260502055703 | 49 | 293 | 2.0 | 8.0 | 0.00 | 0.01 | 0.00 | 91 | 1011.8 |
| 20260502055700 | 49 | 288 | 6.0 | 8.0 | 0.00 | 0.00 | 0.00 | 90 | 1028.5 |
| 20260502055203 | 49 | 343 | 1.0 | 3.0 | 0.00 | 0.01 | 0.00 | 94 | 1012.0 |
| 20260502055158 | 49 | 306 | 0.0 | 0.0 | 0.00 | 0.00 | 0.00 | 93 | 1028.7 |
| 20260502054704 | 49 | 235 | 0.0 | 0.0 | 0.00 | 0.01 | 0.00 | 95 | 1012.0 |
| 20260502054657 | 49 | 302 | 0.0 | 0.0 | 0.00 | 0.00 | 0.00 | 95 | 1028.7 |
| 20260502054203 | 49 | 190 | 0.0 | 0.0 | 0.00 | 0.01 | 0.00 | 95 | 1011.9 |
| 20260502054154 | 49 | 190 | 0.0 | 0.0 | 0.00 | 0.00 | 0.00 | 95 | 1028.6 |
| 20260502053703 | 49 | 190 | 0.0 | 0.0 | 0.00 | 0.01 | 0.00 | 95 | 1012.2 |
| 20260502053651 | 49 | 190 | 0.0 | 0.0 | 0.00 | 0.00 | 0.00 | 95 | 1028.8 |
| 20260502053204 | 49 | 190 | 0.0 | 0.0 | 0.00 | 0.01 | 0.00 | 95 | 1012.1 |
| 20260502053148 | 49 | 190 | 0.0 | 0.0 | 0.00 | 0.00 | 0.00 | 95 | 1028.6 |
| 20260502052703 | 49 | 190 | 0.0 | 0.0 | 0.00 | 0.01 | 0.00 | 95 | 1011.9 |
| 20260502052646 | 49 | 190 | 0.0 | 0.0 | 0.00 | 0.00 | 0.00 | 95 | 1028.6 |
| 20260502052144 | 49 | 190 | 0.0 | 0.0 | 0.00 | 0.00 | 0.00 | 95 | 1028.8 |
| 20260502051642 | 49 | 190 | 0.0 | 0.0 | 0.00 | 0.00 | 0.00 | 95 | 1029.2 |
| 20260502051204 | 49 | 190 | 0.0 | 0.0 | 0.00 | 0.01 | 0.00 | 95 | 1012.3 |
| 20260502051140 | 49 | 190 | 0.0 | 0.0 | 0.00 | 0.00 | 0.00 | 95 | 1029.2 |
| 20260502050704 | 49 | 190 | 0.0 | 0.0 | 0.00 | 0.01 | 0.00 | 95 | 1012.3 |
| 20260502050636 | 49 | 190 | 0.0 | 0.0 | 0.00 | 0.00 | 0.00 | 95 | 1028.8 |
| 20260502050203 | 49 | 190 | 0.0 | 0.0 | 0.00 | 0.01 | 0.00 | 94 | 1012.3 |
| 20260502050133 | 49 | 190 | 0.0 | 0.0 | 0.00 | 0.00 | 0.00 | 94 | 1029.0 |
| 20260502045704 | 49 | 190 | 0.0 | 0.0 | 0.00 | 0.01 | 0.00 | 94 | 1012.3 |
| 20260502045629 | 50 | 190 | 0.0 | 0.0 | 0.00 | 0.00 | 0.00 | 94 | 1028.9 |
| 20260502045203 | 49 | 190 | 0.0 | 0.0 | 0.00 | 0.01 | 0.00 | 94 | 1012.1 |
| 20260502045122 | 50 | 190 | 0.0 | 0.0 | 0.00 | 0.00 | 0.00 | 94 | 1028.7 |
| 20260502044703 | 49 | 190 | 0.0 | 0.0 | 0.00 | 0.01 | 0.00 | 93 | 1011.9 |
| 20260502044618 | 50 | 190 | 0.0 | 0.0 | 0.00 | 0.00 | 0.00 | 93 | 1028.6 |
| 20260502044203 | 49 | 190 | 0.0 | 0.0 | 0.00 | 0.01 | 0.00 | 93 | 1011.9 |
| 20260502044115 | 49 | 190 | 0.0 | 0.0 | 0.00 | 0.00 | 0.00 | 93 | 1028.6 |
| 20260502043705 | 49 | 190 | 0.0 | 0.0 | 0.00 | 0.01 | 0.00 | 92 | 1012.0 |
| 20260502043612 | 49 | 190 | 0.0 | 0.0 | 0.00 | 0.00 | 0.00 | 92 | 1028.6 |
| 20260502043108 | 50 | 190 | 0.0 | 0.0 | 0.00 | 0.00 | 0.00 | 92 | 1028.7 |
| 20260502042603 | 50 | 190 | 0.0 | 0.0 | 0.00 | 0.00 | 0.00 | 92 | 1028.9 |
| 20260502042101 | 50 | 190 | 0.0 | 0.0 | 0.00 | 0.00 | 0.00 | 92 | 1028.8 |
| 20260502041558 | 50 | 190 | 0.0 | 0.0 | 0.00 | 0.00 | 0.00 | 91 | 1028.7 |
| 20260502041205 | 50 | 190 | 0.0 | 0.0 | 0.00 | 0.01 | 0.00 | 90 | 1012.1 |
| 20260502041055 | 50 | 190 | 0.0 | 0.0 | 0.00 | 0.00 | 0.00 | 90 | 1028.7 |
| 20260502040552 | 50 | 190 | 0.0 | 0.0 | 0.00 | 0.00 | 0.00 | 90 | 1028.9 |
| 20260502040204 | 50 | 190 | 0.0 | 0.0 | 0.00 | 0.01 | 0.00 | 90 | 1011.9 |
| 20260502040049 | 50 | 190 | 0.0 | 0.0 | 0.00 | 0.00 | 0.00 | 90 | 1028.6 |
| 20260502035704 | 50 | 190 | 0.0 | 0.0 | 0.00 | 0.13 | 0.01 | 90 | 1011.9 |
| 20260502035545 | 50 | 190 | 0.0 | 0.0 | 0.00 | 0.01 | 0.01 | 90 | 1028.5 |
| 20260502035203 | 50 | 190 | 0.0 | 0.0 | 0.00 | 0.13 | 0.01 | 90 | 1012.0 |
| 20260502035043 | 50 | 190 | 0.0 | 0.0 | 0.00 | 0.01 | 0.01 | 90 | 1028.7 |
| 20260502034540 | 50 | 190 | 0.0 | 0.0 | 0.00 | 0.01 | 0.01 | 90 | 1028.6 |
| 20260502034038 | 50 | 190 | 0.0 | 0.0 | 0.00 | 0.01 | 0.01 | 90 | 1028.4 |
| 20260502033536 | 50 | 190 | 0.0 | 0.0 | 0.00 | 0.01 | 0.01 | 89 | 1028.4 |
| 20260502033204 | 50 | 190 | 0.0 | 0.0 | 0.00 | 0.13 | 0.01 | 88 | 1011.7 |
| 20260502033033 | 50 | 190 | 0.0 | 0.0 | 0.00 | 0.01 | 0.01 | 88 | 1028.4 |
| 20260502032704 | 51 | 190 | 0.0 | 0.0 | 0.00 | 0.13 | 0.01 | 87 | 1011.5 |
| 20260502032529 | 51 | 190 | 0.0 | 0.0 | 0.00 | 0.01 | 0.01 | 87 | 1028.1 |
| 20260502032026 | 51 | 190 | 0.0 | 0.0 | 0.00 | 0.01 | 0.01 | 85 | 1027.9 |
| 20260502031704 | 51 | 189 | 0.0 | 0.0 | 0.00 | 0.13 | 0.01 | 84 | 1011.4 |
| 20260502031524 | 51 | 189 | 0.0 | 0.0 | 0.00 | 0.01 | 0.01 | 84 | 1028.5 |
| 20260502031204 | 51 | 190 | 0.0 | 0.0 | 0.00 | 0.13 | 0.01 | 83 | 1011.7 |
| 20260502031022 | 51 | 190 | 0.0 | 0.0 | 0.00 | 0.01 | 0.01 | 83 | 1028.4 |
| 20260502030704 | 50 | 189 | 0.0 | 0.0 | 0.00 | 0.13 | 0.01 | 84 | 1011.6 |
| 20260502030520 | 50 | 189 | 0.0 | 0.0 | 0.00 | 0.01 | 0.01 | 84 | 1028.3 |
| 20260502030204 | 50 | 189 | 0.0 | 0.0 | 0.00 | 0.13 | 0.01 | 85 | 1011.7 |
| 20260502030018 | 50 | 189 | 0.0 | 0.0 | 0.00 | 0.01 | 0.01 | 85 | 1028.4 |
| 20260502025703 | 50 | 189 | 0.0 | 0.0 | 0.00 | 0.13 | 0.01 | 84 | 1011.9 |
| 20260502025515 | 50 | 189 | 0.0 | 0.0 | 0.00 | 0.01 | 0.01 | 84 | 1028.4 |
| 20260502025203 | 50 | 189 | 0.0 | 0.0 | 0.00 | 0.13 | 0.01 | 84 | 1011.8 |
| 20260502025013 | 50 | 189 | 0.0 | 0.0 | 0.00 | 0.01 | 0.01 | 84 | 1028.5 |
| 20260502024704 | 50 | 189 | 0.0 | 0.0 | 0.00 | 0.13 | 0.01 | 84 | 1011.7 |
| 20260502024510 | 50 | 189 | 0.0 | 0.0 | 0.00 | 0.01 | 0.01 | 84 | 1028.5 |
| 20260502024204 | 51 | 188 | 0.0 | 0.0 | 0.00 | 0.13 | 0.01 | 82 | 1011.7 |
| 20260502024009 | 51 | 188 | 0.0 | 0.0 | 0.00 | 0.01 | 0.01 | 82 | 1028.5 |
| 20260502023704 | 51 | 188 | 0.0 | 1.0 | 0.00 | 0.13 | 0.01 | 81 | 1011.7 |
| 20260502023506 | 51 | 188 | 0.0 | 0.0 | 0.00 | 0.01 | 0.01 | 81 | 1028.4 |
| 20260502023204 | 51 | 228 | 0.0 | 1.0 | 0.00 | 0.13 | 0.01 | 80 | 1011.5 |
| 20260502023003 | 51 | 239 | 0.0 | 0.0 | 0.00 | 0.01 | 0.01 | 80 | 1028.4 |
| 20260502022704 | 51 | 239 | 0.0 | 0.0 | 0.00 | 0.13 | 0.01 | 80 | 1012.0 |
| 20260502022459 | 51 | 239 | 0.0 | 0.0 | 0.00 | 0.01 | 0.01 | 80 | 1028.6 |
| 20260502022204 | 52 | 239 | 0.0 | 0.0 | 0.00 | 0.13 | 0.01 | 80 | 1012.0 |
| 20260502021956 | 52 | 239 | 0.0 | 0.0 | 0.00 | 0.01 | 0.01 | 80 | 1028.7 |
| 20260502021703 | 52 | 239 | 0.0 | 0.0 | 0.00 | 0.13 | 0.01 | 79 | 1011.9 |
| 20260502021454 | 52 | 239 | 0.0 | 0.0 | 0.00 | 0.01 | 0.01 | 79 | 1028.8 |
| 20260502021204 | 52 | 239 | 0.0 | 0.0 | 0.00 | 0.13 | 0.01 | 79 | 1012.1 |
| 20260502020950 | 52 | 239 | 0.0 | 0.0 | 0.00 | 0.01 | 0.01 | 79 | 1028.9 |
| 20260502020703 | 53 | 239 | 0.0 | 0.0 | 0.00 | 0.13 | 0.01 | 79 | 1012.5 |
| 20260502020449 | 53 | 239 | 0.0 | 0.0 | 0.00 | 0.01 | 0.01 | 78 | 1028.9 |
| 20260502020203 | 53 | 239 | 0.0 | 0.0 | 0.00 | 0.13 | 0.01 | 77 | 1012.0 |
| 20260502015945 | 53 | 239 | 0.0 | 0.0 | 0.00 | 0.01 | 0.01 | 77 | 1028.6 |
| 20260502015704 | 53 | 239 | 0.0 | 0.0 | 0.00 | 0.13 | 0.01 | 76 | 1012.1 |
| 20260502015443 | 53 | 238 | 0.0 | 0.0 | 0.00 | 0.01 | 0.01 | 76 | 1028.7 |
| 20260502015204 | 53 | 239 | 0.0 | 0.0 | 0.00 | 0.13 | 0.01 | 76 | 1012.0 |
| 20260502014939 | 53 | 239 | 0.0 | 0.0 | 0.00 | 0.01 | 0.01 | 76 | 1028.8 |
| 20260502014704 | 53 | 239 | 0.0 | 0.0 | 0.00 | 0.13 | 0.01 | 75 | 1011.9 |
| 20260502014436 | 53 | 239 | 0.0 | 0.0 | 0.00 | 0.01 | 0.01 | 75 | 1028.5 |
| 20260502014204 | 53 | 239 | 0.0 | 0.0 | 0.00 | 0.13 | 0.01 | 74 | 1011.7 |
| 20260502013933 | 53 | 239 | 0.0 | 0.0 | 0.00 | 0.01 | 0.01 | 74 | 1028.5 |
| 20260502013704 | 52 | 242 | 0.0 | 0.0 | 0.00 | 0.13 | 0.01 | 73 | 1011.6 |
| 20260502013428 | 53 | 242 | 0.0 | 0.0 | 0.00 | 0.01 | 0.01 | 73 | 1028.5 |
| 20260502013203 | 53 | 242 | 0.0 | 0.0 | 0.00 | 0.13 | 0.01 | 71 | 1011.7 |
| 20260502012925 | 53 | 242 | 0.0 | 0.0 | 0.00 | 0.01 | 0.01 | 70 | 1028.2 |
| 20260502012423 | 53 | 213 | 1.0 | 3.0 | 0.00 | 0.01 | 0.01 | 69 | 1028.1 |
| 20260502012204 | 53 | 211 | 0.0 | 3.0 | 0.00 | 0.13 | 0.01 | 70 | 1011.7 |
| 20260502011920 | 52 | 211 | 0.0 | 2.0 | 0.00 | 0.01 | 0.01 | 68 | 1028.3 |
| 20260502011704 | 51 | 250 | 0.0 | 1.0 | 0.00 | 0.13 | 0.01 | 71 | 1011.5 |
| 20260502011416 | 51 | 259 | 0.0 | 0.0 | 0.00 | 0.01 | 0.01 | 71 | 1028.1 |
| 20260502011204 | 51 | 259 | 0.0 | 0.0 | 0.00 | 0.13 | 0.01 | 71 | 1011.4 |
| 20260502010913 | 51 | 259 | 0.0 | 0.0 | 0.00 | 0.01 | 0.01 | 72 | 1028.0 |
| 20260502010410 | 52 | 259 | 0.0 | 0.0 | 0.00 | 0.01 | 0.01 | 70 | 1027.8 |
| 20260502010204 | 52 | 259 | 0.0 | 0.0 | 0.00 | 0.13 | 0.01 | 68 | 1011.2 |
| 20260502005906 | 52 | 259 | 0.0 | 0.0 | 0.00 | 0.01 | 0.01 | 68 | 1027.9 |
| 20260502005704 | 53 | 259 | 0.0 | 0.0 | 0.00 | 0.13 | 0.01 | 67 | 1011.1 |
| 20260502005404 | 53 | 259 | 0.0 | 0.0 | 0.00 | 0.01 | 0.01 | 66 | 1028.1 |
| 20260502005204 | 53 | 259 | 0.0 | 0.0 | 0.00 | 0.13 | 0.01 | 66 | 1011.3 |
| 20260502004901 | 53 | 259 | 0.0 | 0.0 | 0.00 | 0.01 | 0.01 | 66 | 1027.9 |
| 20260502004704 | 53 | 259 | 0.0 | 0.0 | 0.00 | 0.13 | 0.01 | 65 | 1011.4 |
| 20260502004357 | 53 | 259 | 0.0 | 0.0 | 0.00 | 0.01 | 0.01 | 63 | 1027.9 |
| 20260502004204 | 53 | 259 | 0.0 | 0.0 | 0.00 | 0.13 | 0.01 | 64 | 1011.2 |
| 20260502003855 | 53 | 259 | 0.0 | 0.0 | 0.00 | 0.01 | 0.01 | 64 | 1027.8 |
| 20260502003704 | 53 | 259 | 0.0 | 0.0 | 0.00 | 0.13 | 0.01 | 65 | 1011.1 |
| 20260502003352 | 52 | 259 | 0.0 | 0.0 | 0.00 | 0.01 | 0.01 | 65 | 1027.8 |
| 20260502003204 | 52 | 259 | 0.0 | 0.0 | 0.00 | 0.13 | 0.01 | 65 | 1010.9 |
| 20260502002848 | 53 | 259 | 0.0 | 0.0 | 0.00 | 0.01 | 0.01 | 65 | 1027.5 |
| 20260502002703 | 53 | 259 | 0.0 | 0.0 | 0.00 | 0.13 | 0.01 | 64 | 1010.9 |
| 20260502002346 | 53 | 259 | 0.0 | 0.0 | 0.00 | 0.01 | 0.01 | 63 | 1027.6 |
| 20260502002204 | 54 | 259 | 0.0 | 0.0 | 0.00 | 0.13 | 0.01 | 63 | 1010.8 |
| 20260502001843 | 54 | 259 | 0.0 | 0.0 | 0.00 | 0.01 | 0.01 | 63 | 1027.7 |
| 20260502001340 | 55 | 259 | 0.0 | 0.0 | 0.00 | 0.01 | 0.01 | 61 | 1027.6 |
| 20260502001203 | 55 | 259 | 0.0 | 0.0 | 0.00 | 0.13 | 0.01 | 62 | 1011.0 |
| 20260502000838 | 55 | 259 | 0.0 | 0.0 | 0.00 | 0.01 | 0.01 | 62 | 1027.6 |
| 20260502000703 | 55 | 259 | 0.0 | 0.0 | 0.00 | 0.13 | 0.01 | 62 | 1010.8 |
| 20260502000336 | 55 | 259 | 0.0 | 0.0 | 0.00 | 0.01 | 0.01 | 61 | 1027.6 |
| 20260502000204 | 55 | 259 | 0.0 | 0.0 | 0.00 | 0.13 | 0.01 | 62 | 1011.1 |
| 20260501235832 | 55 | 259 | 0.0 | 0.0 | 0.00 | 0.01 | 0.01 | 62 | 1027.5 |
| 20260501235327 | 55 | 259 | 0.0 | 0.0 | 0.00 | 0.01 | 0.01 | 64 | 1027.8 |
| 20260501234823 | 55 | 259 | 0.0 | 0.0 | 0.00 | 0.01 | 0.01 | 64 | 1027.5 |
| 20260501234703 | 55 | 259 | 0.0 | 0.0 | 0.00 | 0.13 | 0.01 | 63 | 1010.9 |
| 20260501234320 | 55 | 259 | 0.0 | 0.0 | 0.00 | 0.01 | 0.01 | 63 | 1027.6 |
| 20260501234203 | 55 | 259 | 0.0 | 0.0 | 0.00 | 0.13 | 0.01 | 64 | 1010.8 |
| 20260501233819 | 56 | 259 | 0.0 | 0.0 | 0.00 | 0.01 | 0.01 | 64 | 1027.7 |
| 20260501233316 | 57 | 259 | 0.0 | 0.0 | 0.00 | 0.01 | 0.01 | 61 | 1027.3 |
| 20260501232812 | 57 | 259 | 0.0 | 0.0 | 0.00 | 0.01 | 0.01 | 58 | 1027.3 |
| 20260501232702 | 57 | 259 | 0.0 | 5.0 | 0.00 | 0.13 | 0.01 | 56 | 1010.7 |
| 20260501232309 | 58 | 242 | 0.0 | 0.0 | 0.00 | 0.01 | 0.01 | 56 | 1027.3 |
| 20260501232204 | 58 | 243 | 0.0 | 3.0 | 0.00 | 0.13 | 0.01 | 55 | 1010.6 |
| 20260501231806 | 58 | 255 | 1.0 | 3.0 | 0.00 | 0.01 | 0.01 | 56 | 1027.4 |
| 20260501231703 | 58 | 233 | 2.0 | 3.0 | 0.00 | 0.13 | 0.01 | 56 | 1010.7 |
| 20260501231304 | 58 | 243 | 0.0 | 3.0 | 0.00 | 0.01 | 0.01 | 57 | 1027.2 |
| 20260501231203 | 58 | 255 | 0.0 | 5.0 | 0.00 | 0.13 | 0.01 | 58 | 1010.5 |
| 20260501230803 | 58 | 260 | 0.0 | 0.0 | 0.00 | 0.01 | 0.01 | 58 | 1027.2 |
| 20260501230703 | 58 | 237 | 2.0 | 5.0 | 0.00 | 0.13 | 0.01 | 56 | 1010.5 |
| 20260501230301 | 59 | 240 | 0.0 | 0.0 | 0.00 | 0.01 | 0.01 | 58 | 1027.1 |
| 20260501230203 | 58 | 240 | 0.0 | 0.0 | 0.00 | 0.13 | 0.01 | 59 | 1010.4 |
| 20260501225758 | 59 | 240 | 0.0 | 0.0 | 0.00 | 0.01 | 0.01 | 58 | 1027.1 |
| 20260501225703 | 59 | 240 | 0.0 | 1.0 | 0.00 | 0.13 | 0.01 | 57 | 1010.2 |
| 20260501225255 | 59 | 240 | 0.0 | 0.0 | 0.00 | 0.01 | 0.01 | 56 | 1027.0 |
| 20260501224751 | 59 | 250 | 0.0 | 3.0 | 0.00 | 0.01 | 0.01 | 55 | 1027.1 |
| 20260501224703 | 59 | 258 | 1.0 | 3.0 | 0.00 | 0.13 | 0.01 | 54 | 1010.3 |
| 20260501224249 | 59 | 244 | 0.0 | 2.0 | 0.00 | 0.01 | 0.01 | 54 | 1027.0 |
| 20260501224203 | 59 | 250 | 0.0 | 3.0 | 0.00 | 0.13 | 0.01 | 54 | 1010.4 |
| 20260501223745 | 60 | 246 | 0.0 | 3.0 | 0.00 | 0.01 | 0.01 | 53 | 1027.1 |
| 20260501223703 | 60 | 242 | 1.0 | 5.0 | 0.00 | 0.13 | 0.01 | 54 | 1010.4 |
| 20260501223241 | 60 | 243 | 0.0 | 5.0 | 0.00 | 0.01 | 0.01 | 53 | 1027.1 |
| 20260501223203 | 60 | 204 | 2.0 | 7.0 | 0.00 | 0.13 | 0.01 | 54 | 1010.3 |
| 20260501222737 | 60 | 253 | 1.0 | 7.0 | 0.00 | 0.01 | 0.01 | 54 | 1027.0 |
| 20260501222703 | 60 | 200 | 1.0 | 5.0 | 0.00 | 0.13 | 0.01 | 53 | 1010.4 |
| 20260501222234 | 60 | 232 | 1.0 | 3.0 | 0.00 | 0.01 | 0.01 | 52 | 1027.2 |
| 20260501222203 | 60 | 241 | 1.0 | 5.0 | 0.00 | 0.13 | 0.01 | 52 | 1010.4 |
| 20260501221732 | 60 | 197 | 3.0 | 5.0 | 0.00 | 0.01 | 0.01 | 53 | 1027.1 |
| 20260501221703 | 60 | 264 | 1.0 | 5.0 | 0.00 | 0.14 | 0.01 | 52 | 1010.5 |
| 20260501221229 | 60 | 213 | 2.0 | 3.0 | 0.00 | 0.01 | 0.01 | 54 | 1027.4 |
| 20260501221203 | 60 | 248 | 0.0 | 3.0 | 0.00 | 0.14 | 0.01 | 55 | 1010.7 |
| 20260501220726 | 60 | 246 | 0.0 | 3.0 | 0.00 | 0.01 | 0.01 | 54 | 1027.5 |
| 20260501220703 | 60 | 226 | 1.0 | 3.0 | 0.00 | 0.14 | 0.01 | 53 | 1010.9 |
| 20260501220223 | 60 | 249 | 0.0 | 0.0 | 0.00 | 0.01 | 0.01 | 53 | 1027.3 |
| 20260501215720 | 61 | 247 | 0.0 | 0.0 | 0.00 | 0.01 | 0.01 | 52 | 1027.4 |
| 20260501215703 | 61 | 249 | 0.0 | 3.0 | 0.00 | 0.14 | 0.01 | 54 | 1010.7 |
| 20260501215215 | 61 | 256 | 0.0 | 3.0 | 0.00 | 0.01 | 0.01 | 50 | 1027.5 |
| 20260501214710 | 61 | 232 | 1.0 | 3.0 | 0.00 | 0.01 | 0.01 | 52 | 1027.6 |
| 20260501214703 | 61 | 238 | 1.0 | 3.0 | 0.00 | 0.14 | 0.01 | 51 | 1010.9 |
| 20260501214207 | 60 | 215 | 1.0 | 3.0 | 0.00 | 0.01 | 0.01 | 50 | 1027.3 |
| 20260501214203 | 60 | 218 | 0.0 | 3.0 | 0.00 | 0.14 | 0.01 | 51 | 1010.6 |
| 20260501213703 | 61 | 249 | 0.0 | 2.0 | 0.00 | 0.01 | 0.01 | 50 | 1027.1 |
| 20260501213159 | 61 | 233 | 2.0 | 3.0 | 0.00 | 0.01 | 0.01 | 52 | 1027.4 |
| 20260501212703 | 60 | 207 | 2.0 | 5.0 | 0.00 | 0.14 | 0.01 | 51 | 1010.7 |
| 20260501212655 | 60 | 239 | 0.0 | 5.0 | 0.00 | 0.01 | 0.01 | 51 | 1027.4 |
| 20260501212152 | 61 | 241 | 0.0 | 3.0 | 0.00 | 0.01 | 0.01 | 51 | 1027.5 |
| 20260501211703 | 61 | 210 | 3.0 | 8.0 | 0.00 | 0.14 | 0.01 | 49 | 1010.6 |
| 20260501211649 | 61 | 224 | 0.0 | 5.0 | 0.00 | 0.01 | 0.01 | 49 | 1027.2 |
| 20260501211204 | 61 | 197 | 2.0 | 5.0 | 0.00 | 0.14 | 0.01 | 50 | 1010.7 |
| 20260501211147 | 61 | 191 | 3.0 | 5.0 | 0.00 | 0.01 | 0.01 | 50 | 1027.4 |
| 20260501210703 | 62 | 232 | 1.0 | 5.0 | 0.00 | 0.14 | 0.01 | 51 | 1010.6 |
| 20260501210643 | 62 | 246 | 0.0 | 3.0 | 0.00 | 0.01 | 0.01 | 50 | 1027.3 |
| 20260501210203 | 62 | 255 | 0.0 | 1.0 | 0.00 | 0.14 | 0.01 | 53 | 1010.6 |
| 20260501210140 | 62 | 229 | 1.0 | 2.0 | 0.00 | 0.01 | 0.01 | 52 | 1027.4 |
| 20260501205703 | 61 | 228 | 0.0 | 1.0 | 0.00 | 0.14 | 0.01 | 51 | 1010.7 |
| 20260501205636 | 61 | 227 | 0.0 | 2.0 | 0.00 | 0.01 | 0.01 | 51 | 1027.5 |
| 20260501205203 | 60 | 243 | 0.0 | 0.0 | 0.00 | 0.14 | 0.01 | 52 | 1010.8 |
| 20260501205134 | 60 | 243 | 0.0 | 0.0 | 0.00 | 0.01 | 0.01 | 53 | 1027.7 |
| 20260501204703 | 60 | 262 | 0.0 | 3.0 | 0.00 | 0.14 | 0.01 | 49 | 1011.1 |
| 20260501204630 | 60 | 257 | 0.0 | 0.0 | 0.00 | 0.01 | 0.01 | 50 | 1027.5 |
| 20260501204203 | 62 | 227 | 1.0 | 5.0 | 0.00 | 0.14 | 0.01 | 49 | 1010.7 |
| 20260501204126 | 62 | 227 | 2.0 | 3.0 | 0.00 | 0.01 | 0.01 | 49 | 1027.3 |
| 20260501203623 | 62 | 270 | 0.0 | 0.0 | 0.00 | 0.01 | 0.01 | 47 | 1027.3 |
| 20260501203121 | 62 | 262 | 0.0 | 0.0 | 0.00 | 0.01 | 0.01 | 50 | 1027.6 |
| 20260501202704 | 62 | 268 | 0.0 | 3.0 | 0.00 | 0.15 | 0.01 | 48 | 1011.0 |
| 20260501202617 | 62 | 254 | 0.0 | 0.0 | 0.00 | 0.01 | 0.01 | 49 | 1027.5 |
| 20260501202203 | 62 | 278 | 1.0 | 7.0 | 0.00 | 0.15 | 0.01 | 47 | 1010.8 |
| 20260501202114 | 62 | 282 | 1.0 | 3.0 | 0.00 | 0.01 | 0.01 | 47 | 1027.5 |
| 20260501201703 | 63 | 245 | 2.0 | 8.0 | 0.00 | 0.15 | 0.01 | 48 | 1010.9 |
| 20260501201611 | 63 | 263 | 0.0 | 8.0 | 0.00 | 0.01 | 0.01 | 50 | 1027.5 |
| 20260501201107 | 64 | 247 | 0.0 | 2.0 | 0.00 | 0.01 | 0.01 | 46 | 1027.6 |
| 20260501200703 | 64 | 269 | 0.0 | 3.0 | 0.00 | 0.15 | 0.01 | 49 | 1010.9 |
| 20260501200605 | 64 | 269 | 0.0 | 3.0 | 0.00 | 0.01 | 0.01 | 50 | 1027.6 |
| 20260501200203 | 64 | 256 | 0.0 | 3.0 | 0.00 | 0.15 | 0.01 | 49 | 1011.1 |
| 20260501195703 | 64 | 307 | 0.0 | 5.0 | 0.00 | 0.15 | 0.01 | 47 | 1011.2 |
| 20260501195600 | 64 | 295 | 0.0 | 3.0 | 0.00 | 0.01 | 0.01 | 46 | 1027.9 |
| 20260501195204 | 63 | 185 | 3.0 | 7.0 | 0.00 | 0.15 | 0.01 | 45 | 1011.0 |
| 20260501195055 | 63 | 185 | 5.0 | 5.0 | 0.00 | 0.01 | 0.01 | 45 | 1027.6 |
| 20260501194703 | 64 | 238 | 0.0 | 9.0 | 0.00 | 0.15 | 0.01 | 47 | 1011.4 |
| 20260501194550 | 64 | 255 | 0.0 | 2.0 | 0.00 | 0.01 | 0.01 | 47 | 1028.1 |
| 20260501194204 | 64 | 233 | 1.0 | 9.0 | 0.00 | 0.15 | 0.01 | 46 | 1011.3 |
| 20260501194047 | 64 | 246 | 0.0 | 10.0 | 0.00 | 0.01 | 0.01 | 47 | 1027.9 |
| 20260501193703 | 64 | 293 | 0.0 | 5.0 | 0.00 | 0.15 | 0.01 | 47 | 1011.4 |
| 20260501193544 | 64 | 288 | 0.0 | 0.0 | 0.00 | 0.01 | 0.01 | 47 | 1028.1 |
| 20260501193204 | 64 | 266 | 2.0 | 7.0 | 0.00 | 0.15 | 0.01 | 46 | 1011.5 |
| 20260501193038 | 64 | 321 | 0.0 | 5.0 | 0.00 | 0.01 | 0.01 | 46 | 1028.2 |
| 20260501192703 | 63 | 203 | 0.0 | 8.0 | 0.00 | 0.15 | 0.01 | 45 | 1011.3 |
| 20260501192534 | 64 | 203 | 0.0 | 3.0 | 0.00 | 0.01 | 0.01 | 45 | 1028.0 |
| 20260501192203 | 64 | 224 | 2.0 | 5.0 | 0.00 | 0.15 | 0.01 | 43 | 1011.4 |
| 20260501192032 | 64 | 226 | 3.0 | 5.0 | 0.00 | 0.01 | 0.01 | 43 | 1028.1 |
| 20260501191703 | 64 | 291 | 1.0 | 7.0 | 0.00 | 0.15 | 0.01 | 44 | 1011.4 |
| 20260501191528 | 64 | 278 | 1.0 | 7.0 | 0.00 | 0.01 | 0.01 | 43 | 1028.1 |
| 20260501191204 | 64 | 272 | 0.0 | 5.0 | 0.00 | 0.15 | 0.01 | 44 | 1011.5 |
| 20260501191026 | 64 | 251 | 0.0 | 2.0 | 0.00 | 0.01 | 0.01 | 52 | 1028.3 |
| 20260501190703 | 65 | 240 | 1.0 | 3.0 | 0.00 | 0.15 | 0.01 | 46 | 1011.7 |
| 20260501190521 | 66 | 196 | 2.0 | 3.0 | 0.00 | 0.01 | 0.01 | 48 | 1028.3 |
| 20260501190017 | 64 | 250 | 0.0 | 0.0 | 0.00 | 0.01 | 0.01 | 47 | 1028.3 |
| 20260501185704 | 64 | 252 | 0.0 | 3.0 | 0.00 | 0.15 | 0.01 | 50 | 1012.1 |
| 20260501185513 | 63 | 239 | 0.0 | 2.0 | 0.00 | 0.01 | 0.01 | 52 | 1028.4 |
| 20260501185203 | 62 | 265 | 1.0 | 7.0 | 0.00 | 0.15 | 0.01 | 47 | 1011.7 |
| 20260501185009 | 62 | 294 | 1.0 | 5.0 | 0.00 | 0.01 | 0.01 | 49 | 1028.6 |
| 20260501184703 | 63 | 280 | 0.0 | 7.0 | 0.00 | 0.15 | 0.01 | 57 | 1011.9 |
| 20260501184506 | 63 | 275 | 0.0 | 5.0 | 0.00 | 0.01 | 0.01 | 57 | 1028.6 |
| 20260501184204 | 63 | 232 | 1.0 | 7.0 | 0.00 | 0.15 | 0.01 | 45 | 1011.8 |
| 20260501184005 | 64 | 265 | 0.0 | 3.0 | 0.00 | 0.01 | 0.01 | 50 | 1028.7 |
| 20260501183703 | 63 | 270 | 1.0 | 3.0 | 0.00 | 0.15 | 0.01 | 55 | 1012.3 |
| 20260501183503 | 64 | 219 | 3.0 | 3.0 | 0.00 | 0.01 | 0.01 | 49 | 1028.6 |
| 20260501183203 | 63 | 277 | 0.0 | 8.0 | 0.00 | 0.15 | 0.01 | 46 | 1012.2 |
| 20260501182959 | 63 | 277 | 0.0 | 0.0 | 0.00 | 0.01 | 0.01 | 45 | 1028.6 |
| 20260501182704 | 63 | 242 | 3.0 | 8.0 | 0.00 | 0.15 | 0.01 | 46 | 1012.1 |
| 20260501182456 | 63 | 246 | 1.0 | 5.0 | 0.00 | 0.01 | 0.01 | 48 | 1028.8 |
| 20260501182205 | 61 | 281 | 0.0 | 5.0 | 0.00 | 0.15 | 0.01 | 53 | 1012.1 |
| 20260501181953 | 62 | 352 | 0.0 | 3.0 | 0.00 | 0.01 | 0.01 | 48 | 1028.8 |
| 20260501181704 | 63 | 313 | 1.0 | 7.0 | 0.00 | 0.15 | 0.01 | 48 | 1012.2 |
| 20260501181450 | 62 | 308 | 0.0 | 0.0 | 0.00 | 0.01 | 0.01 | 50 | 1029.0 |